Location: Gradaro
(45.0833°N, 10.8833°E)
Time: 10:15:16
(UTC+00:00)

FENGYUN 1C DEB - Pass Details

Date: 30 June 2021
Orbit: 803 x 830 km, 98.8° (Epoch: 28 July)

Event Time Altitude Azimuth Distance (km) Brightness Sun altitude
Exits shadow 21:08:48 24° 143° (SE) 1,620 ? -15.5°
Maximum altitude 21:11:55 60° 71° (ENE) 929 ? -15.8°
Drops below altitude 10° 21:17:11 10° 353° (N) 2,424 ? -16.3°
Sets 21:19:34 0° 349° (N) 3,365 ? -16.5°
